Location: Broek
(53.2737°N, 5.9967°E)
Time: 21:37:40
(UTC+00:00)

Cosmos 1703 - Pass Details

Date: 10 October 2024
Orbit: 470 x 481 km, 82.5° (Epoch: 10 November)

Event Time Altitude Azimuth Distance (km) Brightness Sun altitude
Rises 18:27:59 0° 346° (NNW) 2,543 7.0 -15.4°
Reaches altitude 10° 18:30:06 10° 343° (NNW) 1,662 6.1 -15.7°
Maximum altitude 18:33:42 64° 262° (W) 538 3.5 -16.2°
Drops below altitude 10° 18:37:17 10° 181° (S) 1,660 5.7 -16.7°
Sets 18:39:23 0° 178° (S) 2,539 6.6 -17.0°
